Location: Stoke Bliss
(52.2667°N, 2.5167°W)
Time: 20:07:52
(UTC+00:00)

USA 308 - Pass Details

Date: 03 March 2021
Orbit: 568 x 576 km, 54.0° (Epoch: 16 April)

Event Time Altitude Azimuth Distance (km) Brightness Sun altitude
Rises 18:24:54 0° 256° (WSW) 2,775 8.6 -5.6°
Reaches altitude 10° 18:27:10 10° 257° (WSW) 1,877 7.3 -6.0°
Maximum altitude 18:31:26 82° 345° (NNW) 582 3.0 -6.6°
Drops below altitude 10° 18:35:43 10° 74° (ENE) 1,876 4.9 -7.3°
Enters shadow 18:36:00 - 75° (ENE) 1,988 5.0 -7.3°
